KSTF

Details ICAO KSTF
Name GEORGE M BRYAN
Region United States
Timezone America/Chicago (UTC-5.0)
Plans Departing 6
Arriving 5
Stats Elevation 332 ft / 101 m (AMSL)
Location 33.433124° -88.848604°
Runways 1
Magnetic Variation 2.039° W
Sunrise 2018-05-25 10:50:42 UTC / 2018-05-25 05:50:42 Local
Sunset 2018-05-26 00:56:53 UTC / 2018-05-25 19:56:53 Local
Advertisement - Login to hide

Runways

ID Width Length Bearing (true) Bearing (mag) Surface Threshold Offset Overrun Length
18 150 ft / 46 m 5,566 ft / 1,696 m 178.56° 180.60° Asphalt 1,381 ft / 421 m 0 ft / 0 m
36 150 ft / 46 m 5,566 ft / 1,696 m 358.56° 0.60° Asphalt 0 ft / 0 m 0 ft / 0 m

Map

Weather


0- 5 10 15 20 25 30 35+ Temperature / ° C

Clouds and Precipitation
Forecast for 2018-05-25 06:00 UTC. Updated 2 hours ago

Ground ~20,000 ft ~40,000 ft Winds

METAR

KSTF 250735Z AUTO 00000KT 5SM BR CLR 21/20 A3002 RMK AO2

TAF

Not found

Frequencies

Recorded 118.97 MHz AWOS 3
Clearance 126.25 MHz COLUMBUS CLNC DEL
Unicom 122.70 MHz CTAF/UNICOM
Approach 135.60 MHz COLUMBUS APP/DEP
Warning: Do not use this data for real-world aviation or navigation. No guarantee of current accuracy is given.